Location: Poughquag
(41.6090°N, 73.6820°W)
Time: 11:07:19
(UTC-04:00)

S-56A Canister/Altair - Pass Details

Date: 02 June 2020
Orbit: 633 x 2499 km, 38.9° (Epoch: 06 July)

Event Time Altitude Azimuth Distance (km) Brightness Sun altitude
Rises 08:10:47 0° 274° (W) 3,774 10.5 28.9°
Reaches altitude 10° 08:13:04 10° 272° (W) 3,012 10.1 29.3°
Maximum altitude 08:20:35 69° 191° (S) 1,589 9.5 30.7°
Drops below altitude 10° 08:32:10 10° 111° (ESE) 4,496 12.6 32.8°
Sets 08:36:19 0° 110° (ESE) 5,732 12.9 33.6°
